Regional Weather Roundup
Issued by NWS

Home | Current Version | Previous Version | Text Only | Print | Product List | Glossary On
Versions: 1 2 3 4 5 6 7 8 9 10 11 12 13 14 15 16 17 18 19 20 21 22 23 24 25 26 27 28 29 30 31 32 33 34 35 36 37 38 39 40 41 42 43 44 45 46 47 48 49 50
000
ASUS43 KDTX 290810
RWRMI
MICHIGAN HOURLY REGIONAL WEATHER ROUNDUP
NATIONAL WEATHER SERVICE DETROIT/PONTIAC MI
400 AM EDT FRI MAY 29 2015

NOTE: "FAIR" INDICATES FEW OR NO CLOUDS BELOW 12,000 FEET WITH NO
SIGNIFICANT WEATHER AND/OR OBSTRUCTION TO VISIBILITY.

MIZ047>049-052>055-059>063-066>070-074>076-081>083-290900-
SOUTHEAST LOWER MICHIGAN

CITY           SKY/WX    TMP DP  RH WIND       PRES   REMARKS
ADRIAN         PTCLDY    62  55  77 E5        30.16F
ALMA           MOCLDY    60  54  82 CALM      30.15F
ANN ARBOR      MOCLDY    61  53  75 NE3       30.17S
BAD AXE        PTCLDY    60  49  68 S6        30.19S
CARO           PTCLDY    57  49  74 CALM      30.16F
DETROIT CITY   MOCLDY    61  51  70 E3        30.18F
DETROIT        MOCLDY    64  51  62 CALM      30.17F
FLINT          PTCLDY    63  49  60 S3        30.16F
GROSSE ILE     PTCLDY    64  57  77 E3        30.15F
HILLSDALE      PTCLDY    64  57  79 SE7       30.16S
HOWELL         PTCLDY    61  49  64 SE9       30.17S

CITY           SKY/WX    TMP DP  RH WIND       PRES   REMARKS
JACKSON        PTCLDY    62  53  72 SE6       30.16S
LAMBERTVILLE   PTCLDY    61  55  82 CALM      30.16S
LANSING        MOCLDY    63  51  65 SE8       30.15F
LAPEER         FAIR      61  50  68 SE3       30.19S
MASON          PTCLDY    59  51  75 SE6       30.16S
MONROE         MOCLDY    64  59  82 E3        30.15S
MT. CLEMENS    CLEAR     60  54  82 E5        30.17S
PONTIAC        CLEAR     60  49  66 CALM      30.18S
PORT HOPE        N/A     62  51  67 S6        30.17S
PORT HURON     PTCLDY    57  50  77 CALM      30.20S
TRI CITIES     PTCLDY    61  52  72 SE5       30.16F
MIDLAND        FAIR      64  51  62 SE3       30.14F
TROY           CLEAR     64  50  60 E3        30.20S
SAGINAW HB     PTCLDY    61  50  67 SE5       30.15F
$$
MIZ043>046-050>051-056>058-064>065-071>073-077>080-290900-
SOUTHWEST LOWER MICHIGAN

CITY           SKY/WX    TMP DP  RH WIND       PRES   REMARKS
BATTLE CREEK   PTCLDY    65  54  67 SE7       30.14F
BENTON HARBOR  MOCLDY    66  57  72 SE10      30.09S
BIG RAPIDS     PTCLDY    57  54  88 CALM      30.13S
COLDWATER      PTCLDY    62  55  75 SE8       30.14S
FREMONT        FAIR      64  55  74 SE5       30.10F
HOLLAND        MOCLDY    65  55  70 SE8       30.11S
GRAND RAPIDS   MOCLDY    64  53  67 SE9       30.12F
IONIA          FAIR      64  53  68 SE9       30.13F
KALAMAZOO      MOCLDY    66  54  65 SE5       30.13F
LUDINGTON      CLOUDY    66  57  72 SE7       30.08F
MARSHALL       PTCLDY    62  54  75 E5        30.14S
MOUNT PLEASANT PTCLDY    58  54  85 CALM      30.14F
MUSKEGON       CLOUDY    64  56  75 SE9       30.09F
SOUTH HAVEN    PTCLDY    66  55  67 SE7       30.10S
$$
MIZ016>042-290900-
NORTHERN LOWER MICHIGAN

CITY           SKY/WX    TMP DP  RH WIND       PRES   REMARKS
ALPENA         PTCLDY    64  57  78 S7        30.15F
BEAVER ISLAND  PTCLDY    54  53  95 SE7       30.08F
BELLAIRE       PTCLDY    57  56  95 CALM      30.10F FOG
CADILLAC       PTCLDY    62  55  76 S6        30.13F
CHARLEVOIX     PTCLDY    60  59  94 SE3       30.12F
FRANKFORT      MOCLDY    63  52  68 SE5       30.08F
GAYLORD        PTCLDY    63  59  87 S9        30.14F
GRAYLING       PTCLDY    55  54  94 CALM      30.16S
HARBOR SPRINGS PTCLDY    57  56  95 NE3       30.11F
HOUGHTON LAKE  PTCLDY    63  54  72 SE7       30.15F
MANISTEE       MOCLDY    57  52  82 E6        30.10S
OSCODA         PTCLDY    60  55  84 SW3       30.16F
PELLSTON       PTCLDY    55  54  96 CALM      30.12F
ROGERS CITY    PTCLDY    64  59  82 S9        30.14S
TRAVERSE CITY  PTCLDY    59  56  89 CALM      30.08F
$$
MIZ007>008-015-290900-
EASTERN UPPER MICHIGAN

CITY           SKY/WX    TMP DP  RH WIND       PRES   REMARKS
KINROSS        MOCLDY    52  50  93 SE8       30.11F
MACKINAC ISLAN PTCLDY    44  44  99 SE7       30.10F
NEWBERRY       MOCLDY    54  52  92 S7        30.07F
S. S. MARIE    MOCLDY    54  50  86 E6        30.11F
MUNISING         N/A     56  49  77 S8        30.03F
$$
MIZ004>006-011>014-085-290900-
CENTRAL UPPER MICHIGAN

CITY           SKY/WX    TMP DP  RH WIND       PRES   REMARKS
MANISTIQUE     PTCLDY    51  49  93 SE6       30.06F
ESCANABA       PTCLDY    52  48  87 SE3       30.03F
MENOMINEE      CLOUDY    63  52  67 S6        30.03S
SAWYER-GWINN   MOCLDY    56  52  84 S7        30.02F
$$
MIZ001>003-009>011-084-290900-
WESTERN UPPER MICHIGAN

CITY           SKY/WX    TMP DP  RH WIND       PRES   REMARKS
IRON MOUNTAIN  MOCLDY    60  55  83 SE3       30.01F
HOUGHTON       CLOUDY    61  56  83 S8        29.94F
COPPER HARBOR    N/A     61  55  81 SW8       29.92F
IRONWOOD       CLOUDY    64  54  68 S7        29.90F
$$

ABBREVIATIONS USED IN REMARKS
   TC - TEMPERATURE IN CELSIUS
  WCI - WIND CHILL INDEX
   HX - HEAT INDEX
  VSB - VISIBILITY



USA.gov is the U.S. government's official web portal to all federal, state and local government web resources and services.